Location: Baix
(44.7118°N, 4.7648°E)
Time: 11:18:21
(UTC+00:00)

Cosmos 2322 Rocket - Pass Details

Date: 09 December 2022
Orbit: 834 x 849 km, 71.0° (Epoch: 29 January)

Event Time Altitude Azimuth Distance (km) Brightness Sun altitude
Rises 05:07:43 0° 186° (S) 3,385 5.4 -20.2°
Reaches altitude 10° 05:10:13 10° 181° (S) 2,452 4.7 -19.8°
Maximum altitude 05:15:36 49° 108° (ESE) 1,080 3.2 -18.8°
Drops below altitude 10° 05:21:00 10° 36° (NE) 2,458 4.9 -17.9°
Sets 05:23:30 0° 31° (NNE) 3,395 5.6 -17.5°
